Regional Weather Roundup
Issued by NWS Northern Indiana

Home | Current Version | Previous Version | Graphics & Text | Print | Product List | Glossary On
Versions: 1 2 3 4 5 6 7 8 9 10 11 12 13 14 15 16 17 18 19 20 21 22 23 24 25 26 27 28 29 30 31 32 33 34 35 36 37 38 39 40 41 42 43 44 45 46 47 48 49 50
000
ASUS43 KIWX 200710
RWRIWX

KIWX WEATHER ROUNDUP
NATIONAL WEATHER SERVICE NORTHERN INDIANA
300 AM EDT FRI APR 20 2018

NOTE: "FAIR" INDICATES FEW OR NO CLOUDS BELOW 12,000 FEET WITH NO
SIGNIFICANT WEATHER AND/OR OBSTRUCTIONS TO VISIBILITY.

* THESE STATIONS ARE NOT UNDER NWS QUALITY CONTROL. THEY ALSO MAY NOT
  REPORT WEATHER SUCH AS PRECIPITATION OR FOG.

INZ001>027-200800-
NORTHERN INDIANA

CITY           SKY/WX    TMP DP  RH WIND       PRES   REMARKS
GARY*          FAIR      31  30  97 CALM      30.45S
VALPARAISO     FAIR      38  25  59 N3        30.43S
MICHIGAN CITY* FAIR      30  28  93 CALM      30.44F
LAPORTE*       FAIR      32  26  80 N7        30.43S WCI  26
KNOX*          FAIR      28  23  80 CALM      30.43S
SOUTH BEND     FAIR      28  22  78 CALM      30.43S
GOSHEN         FAIR      30  23  75 VRB5      30.41F WCI  25
MONTICELLO*    FAIR      35  22  60 N8        30.42S WCI  28
LOGANSPORT*    FAIR      32  21  64 N6        30.43S WCI  26
ROCHESTER*     FAIR      34  27  75 N6        30.42F WCI  29
WARSAW*        FAIR      32  23  69 N5        30.41S WCI  27
AUBURN*        FAIR      32  23  69 N6        30.40S WCI  26
FORT WAYNE     FAIR      34  23  64 N7        30.40R WCI  28
HUNTINGTON*    FAIR      32  20  61 CALM      30.40S
PERU/GRISSOM   FAIR      33  21  60 N8        30.40F WCI  26
MARION*        FAIR      33  23  67 CALM      30.41S

$$
INZ028>050-200800-
CENTRAL INDIANA

CITY           SKY/WX    TMP DP  RH WIND       PRES   REMARKS
LAFAYETTE      FAIR      28  21  75 W5        30.43R WCI  23
KOKOMO*        FAIR      32  22  66 N8        30.41F WCI  25
MUNCIE*        FAIR      33  22  63 NW3       30.40R
INDIANAPOLIS   FAIR      35  17  47 N7        30.41R WCI  29

$$
MIZ043>046-050>051-056>058-064>065-071>073-077>080-200800-
SOUTHWEST LOWER MICHIGAN

CITY           SKY/WX    TMP DP  RH WIND       PRES   REMARKS
BATTLE CREEK   FAIR      30  20  66 NW6       30.40S WCI  24
BENTON HARBOR  FAIR      28  25  88 E3        30.43S
COLDWATER*     FAIR      33  20  59 NW3       30.39S
HILLSDALE*     FAIR      32  19  59 N6        30.37S WCI  26
HOLLAND        FAIR      29  24  82 CALM      30.43S
GRAND RAPIDS   FAIR      35  19  52 NW6       30.41S WCI  30
KALAMAZOO      FAIR      33  17  51 NW7       30.41R WCI  27
STURGIS*       FAIR      34  20  57 N6        30.40S WCI  29
THREE RIVERS*  FAIR      31  23  70 NW3       30.42S

$$
OHZ001>008-015>018-024>025-200800-
NORTHWEST OHIO

CITY           SKY/WX    TMP DP  RH WIND       PRES   REMARKS
WAUSEON*       FAIR      37  21  52 N8        30.38S
DEFIANCE       FAIR      34  26  72 NW9       30.39R WCI  27
FINDLAY        FAIR      35  26  69 W3        30.36R
TOLEDO EXPRESS FAIR      32  27  81 NW3       30.37S
TOLEDO METCALF FAIR      34  29  82 W5        30.38R WCI  30
LIMA           FAIR      34  29  82 NW6       30.36S WCI  29

$$
AND FOR LAKE MICHIGAN COASTAL AND OPEN LAKE BUOY OBSERVATIONS

STATION/POSITION TEMP    WIND        PRES    VSBY  WAVE
                 AIR SEA DIR/SP/G                  HT/PER
                 (F)     (DEG/KT/KT) (MB)    (MI)  (FT/S)
CALUMET HARBOR    39     260/  3/  4 1029.9S
MICHIGAN CITY     39     350/  2/  2   N/A
BURNS HARBOR      41     300/  3/  5 1031.2S
SAINT JOSEPH      35     100/  2/  3 1030.1

$$
&&




USA.gov is the U.S. government's official web portal to all federal, state and local government web resources and services.